Regional Weather Roundup
Issued by NWS

Home | Current Version | Previous Version | Graphics & Text | Print | Product List | Glossary On
Versions: 1 2 3 4 5 6 7 8 9 10 11 12 13 14 15 16 17 18 19 20 21 22 23 24 25 26 27 28 29 30 31 32 33 34 35 36 37 38 39 40 41 42 43 44 45 46 47 48 49 50
000
ASUS45 KSLC 011010
RWRUT

UTAH REGIONAL WEATHER ROUNDUP
NATIONAL WEATHER SERVICE SALT LAKE CITY UT
400 AM MDT MON SEP 01 2014

UTZ001>011-023>025-011100-

NORTHERN UTAH

CITY           SKY/WX    TMP DP  RH WIND       PRES   REMARKS
HILL AFB         N/A     55  35  46 E15       30.03S
LOGAN          CLEAR     48  43  82 CALM      30.04R
OGDEN            N/A     55  34  45 S9        30.01S
PROVO AIRPORT    N/A     54  41  62 CALM      30.05S
SALT LAKE CITY   N/A     58  38  47 SE7       30.00S
VERNAL         CLEAR     49  34  56 W7        30.07R
WENDOVER         N/A     63  37  39 SE5       30.02S
HEBER CITY       N/A     43  36  75 CALM      30.11S
WEST JORDAN    CLEAR     57  45  62 CALM      30.03S

$$

UTZ012>022-026-027-011100-

SOUTHERN UTAH

CITY           SKY/WX    TMP DP  RH WIND       PRES   REMARKS
BRYCE CANYON     N/A     39  33  79 W5        30.21S
CEDAR CITY       N/A     53  33  46 N3        30.06R
MILFORD          N/A     55  37  50 S3        30.03R
MOAB/CYNLANDS  CLEAR     57  35  43 W6        29.98S
PRICE            N/A     56  33  42 W3        30.09R
ST GEORGE        N/A     73  37  27 SW7       29.88R
KANAB            N/A     54  37  54 NE5       30.07S

$$

REGIONAL REPORTS     COLORADO/ARIZONA

CITY           SKY/WX    TMP DP  RH WIND       PRES   REMARKS
CRAIG, CO      CLEAR     43  41  93 CALM      30.14S
GRAND JUNCTION CLEAR     56  38  50 E3        30.02S
RIFLE          CLEAR     51  42  71 CALM      30.09R
MONTROSE       CLEAR     51  40  65 SE8       30.12R
CORTEZ         CLEAR     49  41  74 NE6       30.09S
PAGE, AZ         N/A     74  33  22 CALM      29.97S
GRAND CANYON     N/A    N/A N/A N/A MISG        N/A
KINGMAN          N/A     72  39  30 SE10      29.93S
FLAGSTAFF        N/A     50  41  71 CALM      30.23F

$$

REGIONAL REPORTS    NEVADA/IDAHO/WYOMING

CITY           SKY/WX    TMP DP  RH WIND       PRES   REMARKS
LAS VEGAS, NV    N/A     84  29  13 SW9       29.74S
ELY              N/A     44  34  67 S10       30.14R
ELKO             N/A     50  34  54 CALM      30.08R
POCATELLO, ID  CLEAR     56  35  45 SW13      30.03R
BURLEY           N/A     49  41  74 SW8       30.02S
EVANSTON, WY   CLEAR     45  29  53 S7        30.14S
ROCK SPRINGS   PTCLDY    44  32  62 SW8       30.13S

$$


USA.gov is the U.S. government's official web portal to all federal, state and local government web resources and services.